This is the latest recevied weather packets stored in our database for station/object JR5VPD-10. If no packets are shown the sender has not sent any weather packets the latest 10 day(s).
| Time | Temp. | Humidity | Pressure | Rain* | Wind** | Luminosity | Snow |
|---|---|---|---|---|---|---|---|
| 1787416572 | 28.89° C | 93% | 1011.2 hPa | 0 mm | 0 m/s | - | - |
| 1787414772 | 28.89° C | 91% | 1011.5 hPa | 0 mm | 0 m/s | - | - |
| 1787412972 | 28.89° C | 97% | 1011.5 hPa | 0 mm | 0 m/s | - | - |
| 1787411172 | 28.89° C | 95% | 1011.6 hPa | 0 mm | 0 m/s | - | - |
| 1787409372 | 28.89° C | 92% | 1011.8 hPa | 0 mm | 0 m/s | - | - |
| 1787407572 | 30° C | 84% | 1011.8 hPa | 0 mm | 0 m/s | - | - |
| 1787405772 | 30° C | 80% | 1011.5 hPa | 0 mm | 0 m/s | - | - |
| 1787403972 | 30° C | 83% | 1011.4 hPa | 0 mm | 0 m/s | - | - |
| 1787402172 | 30° C | 82% | 1011.2 hPa | 0 mm | 0 m/s | - | - |
| 1787400372 | 30.56° C | 79% | 1011.1 hPa | 0 mm | 0 m/s | - | - |
| 1787398572 | 30.56° C | 71% | 1010.5 hPa | 0 mm | 0 m/s | - | - |
| 1787396772 | 30.56° C | 71% | 1010.2 hPa | 0 mm | 0 m/s | - | - |
| 1787394972 | 30.56° C | 69% | 1009.9 hPa | 0 mm | 0 m/s | - | - |
| 1787393172 | 30.56° C | 70% | 1009.6 hPa | 0 mm | 0 m/s | - | - |
| 1787391372 | 30.56° C | 69% | 1009.4 hPa | 0 mm | 0 m/s | - | - |
| 1787389572 | 30.56° C | 70% | 1009.3 hPa | 0 mm | 0 m/s | - | - |
| 1787387772 | 31.67° C | 66% | 1009.4 hPa | 0 mm | 0 m/s | - | - |
| 1787385972 | 31.67° C | 67% | 1009.3 hPa | 0 mm | 0 m/s | - | - |
| 1787384172 | 31.67° C | 70% | 1009.1 hPa | 0 mm | 0 m/s | - | - |
| 1787382372 | 31.67° C | 72% | 1009.2 hPa | 0 mm | 0 m/s | - | - |
| 1787380572 | 31.67° C | 74% | 1009.1 hPa | 0 mm | 0 m/s | - | - |
| 1787378772 | 31.67° C | 75% | 1009.5 hPa | 0 mm | 0 m/s | - | - |
| 1787376972 | 31.67° C | 75% | 1009.6 hPa | 0 mm | 0 m/s | - | - |
| 1787375172 | 31.67° C | 73% | 1010 hPa | 0 mm | 0 m/s | - | - |
| 1787373372 | 31.67° C | 77% | 1009.8 hPa | 0 mm | 0 m/s | - | - |
* Rain latest hour (hover to see other rain measurements)
** Current wind speed in m/s (hover to see current wind gust speed)